STARLINK-2061 (48312 NORAD) Tracking and Keplerian Element Data

This shows tracking and keplerian element data for the satellite.

Feedback or suggestion? Click here.




ElementValue
Catalog48312
NameSTARLINK-2061
Epoch Orbit187
Epoch Day170.58334491
Epoch Year2021
RAAN274.3189
Inclination53.0509
Eccentricity0.0001362
Argument of Perigee58.2957
Mean Anonmoly185.1438
Mean Motion15.48935394
Decay Rate-0.01080857
L11 48312U 21036AN 21170.58334491 -.01080857 00000-0 -21734-1 0 9997
L22 48312 53.0509 274.3189 0001362 58.2957 185.1438 15.48935394 1871

Live tracking and technical data element details for STARLINK-2061 (NORAD 48312). STARLINK-2061 can be tracked NOW for your location showing map with azimuth and elevation plus other details from your city location.

Track the satellite on the map from your city or location and see movement details for azimuth, elevation, latitude, longitude, range, height, and movement on the map or in text.







IsCatalogInMostPopularTable: catalog: 48312, numindb: 19
Update: records affected: 1



GetName: 48312 STARLINK-2061

Hit Count: updated at: Mon, 21 Jun 2021 03:09:36 GMT